EIN9DM EIDW-KLAS

Flight info

Callsign EIN9DM
Flight time N/A
Altitude 36000
Route SUROX3J SUROX DCT REVNU DCT SUNOT DCT 60N020W 64N030W 66N040W 67N050W/M082F380 DCT DARUB/N0479F380 DCT 66N070W 64N080W 5930N09000W DCT YGX DCT AMENU/N0452F400 DCT ISN DCT KU03U DCT KU81S DCT KU69Q DCT KU57O DCT MLF DCT STEWW CHOWW3
Aircraft A333/H-SDE3GHIJ2J3J5M1RVWXY/LB2D1

Departure

Time 2026-05-01 11:44
Airport Dublin Airport (EIDW)

Arrival

Time N/A
Airport Harry Reid International Airport (KLAS)
Time Latitude Longitude Altitude Speed Heading
2026-05-01 11:28 53.42280 -6.24642 215 ft 0 kts 155°
2026-05-01 11:31 53.42294 -6.24653 220 ft 4 kts 155°
2026-05-01 11:31 53.42319 -6.24672 222 ft 4 kts 155°
2026-05-01 11:31 53.42343 -6.24691 221 ft 4 kts 153°
2026-05-01 11:32 53.42367 -6.24711 221 ft 4 kts 167°
2026-05-01 11:32 53.42392 -6.24709 215 ft 4 kts 209°
2026-05-01 11:32 53.42409 -6.24687 224 ft 1 kts 226°
2026-05-01 11:32 53.42412 -6.24682 216 ft 0 kts 226°
2026-05-01 11:35 53.42411 -6.24682 216 ft 0 kts 226°
2026-05-01 11:35 53.42410 -6.24685 223 ft 0 kts 226°
2026-05-01 11:35 53.42399 -6.24705 221 ft 0 kts 226°
2026-05-01 11:36 53.42398 -6.24705 221 ft 0 kts 226°
2026-05-01 11:36 53.42389 -6.24723 215 ft 5 kts 226°
2026-05-01 11:37 53.42364 -6.24819 223 ft 10 kts 274°
2026-05-01 11:37 53.42390 -6.24879 219 ft 5 kts 332°
2026-05-01 11:37 53.42444 -6.24917 222 ft 11 kts 336°
2026-05-01 11:37 53.42533 -6.24980 216 ft 16 kts 340°
2026-05-01 11:38 53.42644 -6.25055 225 ft 17 kts 336°
2026-05-01 11:38 53.42726 -6.25179 225 ft 16 kts 309°
2026-05-01 11:38 53.42815 -6.25260 223 ft 14 kts 336°
2026-05-01 11:38 53.42904 -6.25323 220 ft 14 kts 336°
2026-05-01 11:39 53.42989 -6.25386 220 ft 13 kts 335°
2026-05-01 11:39 53.43070 -6.25446 221 ft 13 kts 337°
2026-05-01 11:39 53.43150 -6.25501 222 ft 12 kts 337°
2026-05-01 11:39 53.43228 -6.25559 216 ft 12 kts 335°
2026-05-01 11:40 53.43308 -6.25617 221 ft 13 kts 337°
2026-05-01 11:40 53.43387 -6.25637 225 ft 11 kts 30°
2026-05-01 11:40 53.43401 -6.25512 224 ft 13 kts 93°
2026-05-01 11:40 53.43393 -6.25347 217 ft 15 kts 97°
2026-05-01 11:41 53.43380 -6.25163 216 ft 16 kts 95°
2026-05-01 11:41 53.43375 -6.24975 223 ft 17 kts 95°
2026-05-01 11:41 53.43361 -6.24744 221 ft 24 kts 96°
2026-05-01 11:41 53.43342 -6.24428 222 ft 30 kts 96°
2026-05-01 11:42 53.43324 -6.24091 218 ft 28 kts 95°
2026-05-01 11:42 53.43326 -6.23904 220 ft 13 kts 66°
2026-05-01 11:42 53.43399 -6.23853 219 ft 11 kts
2026-05-01 11:42 53.43474 -6.23840 216 ft 7 kts
2026-05-01 11:43 53.43486 -6.23855 224 ft 2 kts 297°
2026-05-01 11:43 53.43491 -6.23990 220 ft 33 kts 274°
2026-05-01 11:43 53.43533 -6.24703 219 ft 88 kts 275°
2026-05-01 11:44 53.43703 -6.27836 304 ft 168 kts 274°
2026-05-01 11:44 53.43792 -6.29788 812 ft 168 kts 271°
2026-05-01 11:44 53.44180 -6.31661 1318 ft 178 kts 308°
2026-05-01 11:44 53.45068 -6.33146 1698 ft 187 kts 313°
2026-05-01 11:45 53.46102 -6.34617 1880 ft 202 kts 324°
2026-05-01 11:45 53.47484 -6.35318 2018 ft 220 kts 355°
2026-05-01 11:45 53.49056 -6.35284 2302 ft 233 kts
2026-05-01 11:45 53.50190 -6.35181 2441 ft 248 kts
2026-05-01 11:46 53.51923 -6.35103 2960 ft 254 kts 352°
2026-05-01 11:46 53.53601 -6.36047 3513 ft 258 kts 326°
2026-05-01 11:46 53.55102 -6.37793 3996 ft 265 kts 321°
2026-05-01 11:46 53.56587 -6.39713 4501 ft 273 kts 320°
2026-05-01 11:47 53.58085 -6.41661 5048 ft 278 kts 320°
2026-05-01 11:47 53.59638 -6.43660 5658 ft 281 kts 320°
2026-05-01 11:47 53.61211 -6.45676 6192 ft 286 kts 320°
2026-05-01 11:47 53.62797 -6.47703 6775 ft 291 kts 319°
2026-05-01 11:48 53.64410 -6.49806 7344 ft 294 kts 317°
2026-05-01 11:48 53.66010 -6.52003 7925 ft 298 kts 317°
2026-05-01 11:48 53.67628 -6.54255 8527 ft 302 kts 316°
2026-05-01 11:48 53.69246 -6.56513 9111 ft 306 kts 316°
2026-05-01 11:49 53.70900 -6.58823 9711 ft 309 kts 316°
2026-05-01 11:49 53.72572 -6.61159 10264 ft 314 kts 316°
2026-05-01 11:49 53.74272 -6.63540 10519 ft 329 kts 316°
2026-05-01 11:49 53.76094 -6.66097 10718 ft 346 kts 316°
2026-05-01 11:50 53.77996 -6.68764 10916 ft 362 kts 317°
2026-05-01 11:50 53.79951 -6.71508 11113 ft 375 kts 317°
2026-05-01 11:50 53.82002 -6.74384 11530 ft 382 kts 317°
2026-05-01 11:50 53.84037 -6.77239 12040 ft 386 kts 317°
2026-05-01 11:51 53.86112 -6.80156 12554 ft 390 kts 317°
2026-05-01 11:51 53.88207 -6.83109 13107 ft 393 kts 317°
2026-05-01 11:51 53.90318 -6.86087 13608 ft 396 kts 316°
2026-05-01 11:51 53.92454 -6.89106 14100 ft 399 kts 316°
2026-05-01 11:52 53.94580 -6.92116 14529 ft 403 kts 316°
2026-05-01 11:52 53.96733 -6.95214 14947 ft 405 kts 314°
2026-05-01 11:52 53.98641 -6.98679 15366 ft 403 kts 302°
2026-05-01 11:52 54.00077 -7.02766 15799 ft 399 kts 288°
2026-05-01 11:53 54.01059 -7.07121 16246 ft 398 kts 283°
2026-05-01 11:53 54.01882 -7.11652 16662 ft 399 kts 280°
2026-05-01 11:53 54.02611 -7.16232 17096 ft 401 kts 279°
2026-05-01 11:53 54.03310 -7.20850 17514 ft 404 kts 278°
2026-05-01 11:54 54.04002 -7.25436 17940 ft 406 kts 279°
2026-05-01 11:54 54.04726 -7.30133 18353 ft 410 kts 279°
2026-05-01 11:54 54.05461 -7.34813 18718 ft 412 kts 279°
2026-05-01 11:54 54.06216 -7.39550 19105 ft 414 kts 279°
2026-05-01 11:55 54.06975 -7.44273 19440 ft 418 kts 279°
2026-05-01 11:55 54.07749 -7.49083 19793 ft 421 kts 279°
2026-05-01 11:55 54.08524 -7.53901 20171 ft 422 kts 279°
2026-05-01 11:55 54.09301 -7.58745 20534 ft 424 kts 279°
2026-05-01 11:56 54.10077 -7.63606 20903 ft 426 kts 279°
2026-05-01 11:56 54.10847 -7.68438 21272 ft 427 kts 279°
2026-05-01 11:56 54.11628 -7.73360 21611 ft 429 kts 279°
2026-05-01 11:56 54.12398 -7.78233 21962 ft 431 kts 279°
2026-05-01 11:57 54.13177 -7.83184 22308 ft 433 kts 279°
2026-05-01 11:57 54.13966 -7.88210 22648 ft 435 kts 279°
2026-05-01 11:57 54.14743 -7.93169 22977 ft 437 kts 279°
2026-05-01 11:57 54.15530 -7.98216 23317 ft 440 kts 278°
2026-05-01 11:58 54.16308 -8.03226 23575 ft 443 kts 278°
2026-05-01 11:58 54.17096 -8.08308 23850 ft 445 kts 278°
2026-05-01 11:58 54.18688 -8.18617 24383 ft 449 kts 278°
2026-05-01 11:59 54.19474 -8.23732 24625 ft 450 kts 278°
2026-05-01 11:59 54.20273 -8.28945 24889 ft 452 kts 278°
2026-05-01 11:59 54.21061 -8.34100 25139 ft 453 kts 278°
2026-05-01 12:00 54.22651 -8.44564 25645 ft 457 kts 278°
2026-05-01 12:00 54.23453 -8.49869 25876 ft 459 kts 278°
2026-05-01 12:00 54.25051 -8.60500 26300 ft 465 kts 278°
2026-05-01 12:01 54.25857 -8.65884 26563 ft 466 kts 278°
2026-05-01 12:01 54.26655 -8.71227 26809 ft 468 kts 278°
2026-05-01 12:01 54.27464 -8.76664 27042 ft 469 kts 278°
2026-05-01 12:01 54.28264 -8.82057 27269 ft 471 kts 278°
2026-05-01 12:02 54.29070 -8.87510 27491 ft 472 kts 278°
2026-05-01 12:02 54.29869 -8.92935 27706 ft 474 kts 278°
2026-05-01 12:02 54.30680 -8.98470 27927 ft 476 kts 278°
2026-05-01 12:02 54.31480 -9.03937 28136 ft 477 kts 277°
2026-05-01 12:03 54.32290 -9.09499 28372 ft 479 kts 277°
2026-05-01 12:03 54.33088 -9.15006 28512 ft 482 kts 277°
2026-05-01 12:03 54.33903 -9.20642 28718 ft 484 kts 277°
2026-05-01 12:03 54.34704 -9.26200 28924 ft 485 kts 277°
2026-05-01 12:04 54.35515 -9.31847 29153 ft 486 kts 277°
2026-05-01 12:04 54.36320 -9.37472 29352 ft 488 kts 277°
2026-05-01 12:04 54.37130 -9.43149 29568 ft 489 kts 277°
2026-05-01 12:04 54.37927 -9.48762 29756 ft 491 kts 277°
2026-05-01 12:05 54.38738 -9.54491 29992 ft 491 kts 277°
2026-05-01 12:05 54.40343 -9.65894 30379 ft 494 kts 277°
2026-05-01 12:05 54.41146 -9.71649 30456 ft 497 kts 277°
2026-05-01 12:06 54.41954 -9.77450 30614 ft 498 kts 277°
2026-05-01 12:06 54.42755 -9.83214 30861 ft 497 kts 277°
2026-05-01 12:06 54.43549 -9.88936 31132 ft 496 kts 276°
2026-05-01 12:06 54.44350 -9.94733 31361 ft 495 kts 276°
2026-05-01 12:07 54.45143 -10.00499 31582 ft 495 kts 277°
2026-05-01 12:07 54.46138 -10.06120 31787 ft 501 kts 285°
2026-05-01 12:07 54.47638 -10.11597 31989 ft 509 kts 295°
2026-05-01 12:07 54.49682 -10.16637 32177 ft 516 kts 306°
2026-05-01 12:08 54.52056 -10.21245 32397 ft 518 kts 308°
2026-05-01 12:08 54.54545 -10.25742 32670 ft 517 kts 310°
2026-05-01 12:08 54.57081 -10.30159 33036 ft 513 kts 311°
2026-05-01 12:08 54.59581 -10.34462 33347 ft 511 kts 311°
2026-05-01 12:09 54.62101 -10.38808 33532 ft 510 kts 311°
2026-05-01 12:09 54.64593 -10.43139 33692 ft 510 kts 311°
2026-05-01 12:09 54.67093 -10.47517 33880 ft 510 kts 311°
2026-05-01 12:09 54.69549 -10.51847 34057 ft 509 kts 311°
2026-05-01 12:10 54.72030 -10.56240 34223 ft 508 kts 311°
2026-05-01 12:10 54.76940 -10.64973 34564 ft 506 kts 311°
2026-05-01 12:10 54.79400 -10.69362 34709 ft 505 kts 311°
2026-05-01 12:11 54.84270 -10.78073 35022 ft 503 kts 311°
2026-05-01 12:11 54.86705 -10.82440 35168 ft 502 kts 311°
2026-05-01 12:11 54.89110 -10.86760 35310 ft 501 kts 311°
2026-05-01 12:12 54.91554 -10.91157 35454 ft 500 kts 311°
2026-05-01 12:12 54.93947 -10.95471 35603 ft 499 kts 311°
2026-05-01 12:12 54.96350 -10.99814 35913 ft 494 kts 312°
2026-05-01 12:12 54.98745 -11.04149 36063 ft 493 kts 312°
2026-05-01 12:13 55.03490 -11.12756 36066 ft 491 kts 312°
2026-05-01 12:13 55.08208 -11.21348 36068 ft 490 kts 312°
2026-05-01 12:14 55.12919 -11.29958 36070 ft 490 kts 311°
2026-05-01 12:14 55.17630 -11.38600 36073 ft 490 kts 311°
2026-05-01 12:15 55.22320 -11.47235 36072 ft 490 kts 311°
2026-05-01 12:15 55.27014 -11.55909 36074 ft 490 kts 311°
2026-05-01 12:16 55.31698 -11.64596 36078 ft 489 kts 311°
2026-05-01 12:16 55.36349 -11.73254 36078 ft 489 kts 311°
2026-05-01 12:17 55.41016 -11.81973 36078 ft 489 kts 311°
2026-05-01 12:17 55.45678 -11.90715 36085 ft 489 kts 311°
2026-05-01 12:18 55.50325 -11.99462 36089 ft 489 kts 311°
2026-05-01 12:18 55.54967 -12.08231 36091 ft 489 kts 311°
2026-05-01 12:19 55.59604 -12.17024 36094 ft 489 kts 311°
2026-05-01 12:19 55.64233 -12.25835 36094 ft 489 kts 311°
2026-05-01 12:20 55.68867 -12.34687 36093 ft 489 kts 310°
2026-05-01 12:20 55.73461 -12.43497 36117 ft 487 kts 311°
2026-05-01 12:21 55.78036 -12.52303 36110 ft 484 kts 311°
2026-05-01 12:21 55.82598 -12.61116 36107 ft 484 kts 311°
2026-05-01 12:22 55.87143 -12.69931 36113 ft 484 kts 311°
2026-05-01 12:22 55.91677 -12.78755 36114 ft 483 kts 310°
2026-05-01 12:23 55.96206 -12.87606 36125 ft 482 kts 310°
2026-05-01 12:23 56.00743 -12.96504 36126 ft 483 kts 310°
2026-05-01 12:24 56.05261 -13.05394 36131 ft 482 kts 310°
2026-05-01 12:24 56.09763 -13.14290 36131 ft 482 kts 310°
2026-05-01 12:25 56.16494 -13.27649 36134 ft 481 kts 310°
2026-05-01 12:26 56.20947 -13.36529 36140 ft 480 kts 310°
2026-05-01 12:26 56.27628 -13.49917 36141 ft 480 kts 310°
2026-05-01 12:27 56.34303 -13.63367 36144 ft 479 kts 310°
2026-05-01 12:28 56.40942 -13.76821 36149 ft 478 kts 310°
2026-05-01 12:29 56.47550 -13.90289 36150 ft 477 kts 309°
2026-05-01 12:29 56.54143 -14.03806 36150 ft 477 kts 310°
2026-05-01 12:30 56.59976 -14.15826 36152 ft 473 kts 310°
2026-05-01 12:31 56.64280 -14.24734 36152 ft 470 kts 310°
2026-05-01 12:31 56.68598 -14.33709 36151 ft 470 kts 310°
2026-05-01 12:32 56.72892 -14.42666 36151 ft 470 kts 309°
2026-05-01 12:32 56.79323 -14.56142 36152 ft 469 kts 310°
2026-05-01 12:33 56.83589 -14.65123 36149 ft 468 kts 309°
2026-05-01 12:33 56.87828 -14.74082 36148 ft 467 kts 309°
2026-05-01 12:34 56.92067 -14.83076 36153 ft 467 kts 310°
2026-05-01 12:34 56.96309 -14.92113 36152 ft 463 kts 310°
2026-05-01 12:35 57.00667 -15.00712 36157 ft 464 kts 317°
2026-05-01 12:35 57.05613 -15.08421 36139 ft 464 kts 319°
2026-05-01 12:36 57.10613 -15.15890 36157 ft 464 kts 319°
2026-05-01 12:36 57.15644 -15.23370 36137 ft 464 kts 319°
2026-05-01 12:37 57.20652 -15.30869 36157 ft 464 kts 319°
2026-05-01 12:37 57.25646 -15.38398 36134 ft 464 kts 319°
2026-05-01 12:38 57.30647 -15.45972 36139 ft 463 kts 318°
2026-05-01 12:38 57.35613 -15.53518 36141 ft 463 kts 319°
2026-05-01 12:39 57.40612 -15.61143 36137 ft 463 kts 318°
2026-05-01 12:39 57.45560 -15.68715 36142 ft 463 kts 318°
2026-05-01 12:40 57.50519 -15.76333 36144 ft 463 kts 318°
2026-05-01 12:40 57.55485 -15.83987 36141 ft 458 kts 318°
2026-05-01 12:41 57.60352 -15.91516 36135 ft 454 kts 318°
2026-05-01 12:41 57.65203 -15.99051 36135 ft 454 kts 318°
2026-05-01 12:42 57.70077 -16.06648 36132 ft 455 kts 318°
2026-05-01 12:42 57.74921 -16.14224 36132 ft 455 kts 317°
2026-05-01 12:43 57.79761 -16.21822 36129 ft 455 kts 317°
2026-05-01 12:43 57.84603 -16.29451 36133 ft 455 kts 317°
2026-05-01 12:44 57.89431 -16.37085 36134 ft 454 kts 317°
2026-05-01 12:45 57.99113 -16.52478 36132 ft 454 kts 317°
2026-05-01 12:45 58.03919 -16.60161 36131 ft 453 kts 317°
2026-05-01 12:46 58.08703 -16.67836 36125 ft 453 kts 317°
2026-05-01 12:46 58.13509 -16.75576 36128 ft 453 kts 317°
2026-05-01 12:47 58.18311 -16.83338 36123 ft 453 kts 317°
2026-05-01 12:47 58.23129 -16.91155 36126 ft 453 kts 317°
2026-05-01 12:48 58.27873 -16.98881 36124 ft 451 kts 317°
2026-05-01 12:48 58.32639 -17.06667 36121 ft 451 kts 317°
2026-05-01 12:49 58.37382 -17.14446 36123 ft 451 kts 317°
2026-05-01 12:49 58.42153 -17.22301 36123 ft 451 kts 317°
2026-05-01 12:50 58.46882 -17.30114 36117 ft 450 kts 317°
2026-05-01 12:50 58.51597 -17.37935 36110 ft 449 kts 316°
2026-05-01 12:51 58.56303 -17.45769 36116 ft 449 kts 316°
2026-05-01 12:52 58.63385 -17.57574 36117 ft 449 kts 316°
2026-05-01 12:52 58.70421 -17.69464 36114 ft 448 kts 316°
2026-05-01 12:53 58.77402 -17.81301 36115 ft 447 kts 316°
2026-05-01 12:54 58.82066 -17.89227 36113 ft 447 kts 316°
2026-05-01 12:54 58.89042 -18.01134 36114 ft 447 kts 316°
2026-05-01 12:55 58.95974 -18.13032 36114 ft 440 kts 315°
2026-05-01 12:56 59.00546 -18.20915 36110 ft 439 kts 315°
2026-05-01 12:56 59.05091 -18.28786 36110 ft 440 kts 315°
2026-05-01 12:57 59.09640 -18.36691 36111 ft 440 kts 315°
2026-05-01 12:57 59.16479 -18.48629 36108 ft 439 kts 315°
2026-05-01 12:58 59.21009 -18.56572 36108 ft 438 kts 315°
2026-05-01 12:59 59.27773 -18.68488 36109 ft 437 kts 315°
2026-05-01 12:59 59.34534 -18.80467 36108 ft 437 kts 315°
2026-05-01 13:00 59.41300 -18.92521 36107 ft 437 kts 314°
2026-05-01 13:01 59.48011 -19.04546 36108 ft 437 kts 314°
2026-05-01 13:02 59.54723 -19.16642 36107 ft 437 kts 314°
2026-05-01 13:07 60.03295 -20.06567 36111 ft 433 kts 311°
2026-05-01 13:08 60.07506 -20.15145 36111 ft 433 kts 311°
2026-05-01 13:08 60.11694 -20.23729 36110 ft 433 kts 311°
2026-05-01 13:09 60.15924 -20.32391 36112 ft 433 kts 311°
2026-05-01 13:09 60.20141 -20.41036 36111 ft 433 kts 311°
2026-05-01 13:10 60.24334 -20.49661 36110 ft 433 kts 311°
2026-05-01 13:10 60.28540 -20.58346 36115 ft 432 kts 311°
2026-05-01 13:11 60.32718 -20.67008 36114 ft 431 kts 311°
2026-05-01 13:11 60.36882 -20.75678 36112 ft 432 kts 311°
2026-05-01 13:12 60.41065 -20.84423 36111 ft 432 kts 311°
2026-05-01 13:12 60.45235 -20.93173 36114 ft 431 kts 311°
2026-05-01 13:13 60.49369 -21.01878 36117 ft 427 kts 310°
2026-05-01 13:13 60.53470 -21.10550 36116 ft 427 kts 310°
2026-05-01 13:14 60.57591 -21.19301 36115 ft 427 kts 310°
2026-05-01 13:14 60.61668 -21.27992 36115 ft 427 kts 310°
2026-05-01 13:15 60.65763 -21.36753 36119 ft 427 kts 310°
2026-05-01 13:15 60.69864 -21.45565 36119 ft 427 kts 310°
2026-05-01 13:16 60.73929 -21.54330 36125 ft 427 kts 310°
2026-05-01 13:16 60.78019 -21.63186 36160 ft 427 kts 310°
2026-05-01 13:17 60.86146 -21.80889 36125 ft 426 kts 310°
2026-05-01 13:18 60.91548 -21.92735 36129 ft 426 kts 310°
2026-05-01 13:18 60.95564 -22.01584 36128 ft 426 kts 310°
2026-05-01 13:19 60.99613 -22.10538 36134 ft 426 kts 310°
2026-05-01 13:20 61.05634 -22.23919 36133 ft 425 kts 309°
2026-05-01 13:20 61.09661 -22.32916 36135 ft 425 kts 309°
2026-05-01 13:21 61.15661 -22.46387 36135 ft 425 kts 309°
2026-05-01 13:21 61.19638 -22.55362 36140 ft 425 kts 309°
2026-05-01 13:22 61.23644 -22.64439 36180 ft 425 kts 309°
2026-05-01 13:22 61.27619 -22.73483 36145 ft 424 kts 309°
2026-05-01 13:23 61.31582 -22.82535 36136 ft 424 kts 309°
2026-05-01 13:23 61.35544 -22.91626 36146 ft 424 kts 309°
2026-05-01 13:24 61.39522 -23.00786 36138 ft 424 kts 309°
2026-05-01 13:25 61.45434 -23.14468 36149 ft 423 kts 309°
2026-05-01 13:25 61.49368 -23.23619 36151 ft 422 kts 309°
2026-05-01 13:26 61.53289 -23.32778 36150 ft 422 kts 309°
2026-05-01 13:26 61.57186 -23.41917 36151 ft 422 kts 308°
2026-05-01 13:27 61.61091 -23.51116 36151 ft 422 kts 308°
2026-05-01 13:27 61.66928 -23.64933 36157 ft 422 kts 308°
2026-05-01 13:28 61.72768 -23.78845 36151 ft 422 kts 308°
2026-05-01 13:29 61.80524 -23.97450 36154 ft 422 kts 308°
2026-05-01 13:31 61.92127 -24.25579 36183 ft 422 kts 308°
2026-05-01 13:32 62.01743 -24.49164 36162 ft 422 kts 308°
2026-05-01 13:33 62.11316 -24.72892 36327 ft 426 kts 308°
2026-05-01 13:34 62.15173 -24.82520 36525 ft 427 kts 308°
2026-05-01 13:34 62.19039 -24.92214 36690 ft 428 kts 308°
2026-05-01 13:35 62.22910 -25.01959 36849 ft 429 kts 308°
2026-05-01 13:35 62.24837 -25.06827 36929 ft 429 kts 307°
2026-05-01 13:35 62.28695 -25.16606 37083 ft 430 kts 307°
2026-05-01 13:36 62.30624 -25.21509 37163 ft 430 kts 307°
2026-05-01 13:36 62.36411 -25.36290 37413 ft 431 kts 307°
2026-05-01 13:37 62.40258 -25.46170 37541 ft 432 kts 307°
2026-05-01 13:37 62.44106 -25.56097 37700 ft 432 kts 307°
2026-05-01 13:38 62.47948 -25.66049 37816 ft 433 kts 307°
2026-05-01 13:38 62.49871 -25.71049 37886 ft 433 kts 307°
2026-05-01 13:39 62.53718 -25.81081 38016 ft 434 kts 307°
2026-05-01 13:39 62.57579 -25.91196 38175 ft 434 kts 307°
2026-05-01 13:40 62.61417 -26.01295 38184 ft 432 kts 307°
2026-05-01 13:40 62.65207 -26.11310 38184 ft 431 kts 307°
2026-05-01 13:41 62.69009 -26.21406 38184 ft 431 kts 307°
2026-05-01 13:41 62.72793 -26.31498 38182 ft 431 kts 307°
2026-05-01 13:42 62.76590 -26.41671 38185 ft 431 kts 306°
2026-05-01 13:42 62.80360 -26.51819 38212 ft 431 kts 306°
2026-05-01 13:43 62.84122 -26.61988 38186 ft 430 kts 306°
2026-05-01 13:43 62.87877 -26.72186 38184 ft 430 kts 306°
2026-05-01 13:44 62.91632 -26.82431 38184 ft 430 kts 306°
2026-05-01 13:44 62.95346 -26.92610 38184 ft 430 kts 306°
2026-05-01 13:45 62.99097 -27.02934 38184 ft 430 kts 306°
2026-05-01 13:45 63.02794 -27.13158 38193 ft 430 kts 306°
2026-05-01 13:46 63.06511 -27.23484 38191 ft 430 kts 306°
2026-05-01 13:46 63.10209 -27.33803 38189 ft 430 kts 306°
2026-05-01 13:47 63.13919 -27.44207 38168 ft 429 kts 306°
2026-05-01 13:47 63.17596 -27.54561 38190 ft 429 kts 306°
2026-05-01 13:48 63.21276 -27.64972 38191 ft 429 kts 306°
2026-05-01 13:48 63.24933 -27.75369 38193 ft 429 kts 305°
2026-05-01 13:49 63.28601 -27.85844 38190 ft 429 kts 305°
2026-05-01 13:49 63.32277 -27.96389 38192 ft 430 kts 305°
2026-05-01 13:50 63.35929 -28.06916 38192 ft 429 kts 305°
2026-05-01 13:50 63.39545 -28.17388 38189 ft 429 kts 305°
2026-05-01 13:51 63.43203 -28.28030 38189 ft 429 kts 305°
2026-05-01 13:51 63.46819 -28.38600 38201 ft 429 kts 305°
2026-05-01 13:52 63.50426 -28.49193 38196 ft 429 kts 305°
2026-05-01 13:52 63.54041 -28.59859 38196 ft 429 kts 305°
2026-05-01 13:53 63.57630 -28.70500 38192 ft 429 kts 304°
2026-05-01 13:53 63.63029 -28.86600 38194 ft 429 kts 304°
2026-05-01 13:54 63.66606 -28.97333 38207 ft 429 kts 304°
2026-05-01 13:54 63.70161 -29.08050 38194 ft 428 kts 304°
2026-05-01 13:55 63.73705 -29.18783 38199 ft 427 kts 304°
2026-05-01 13:55 63.77251 -29.29575 38193 ft 427 kts 304°
2026-05-01 13:56 63.80767 -29.40324 38197 ft 427 kts 304°
2026-05-01 13:56 63.84288 -29.51143 38199 ft 427 kts 304°
2026-05-01 13:57 63.87230 -29.60221 38225 ft 427 kts 304°
2026-05-01 13:57 63.91290 -29.72813 38198 ft 425 kts 304°
2026-05-01 13:58 63.94782 -29.83698 38198 ft 425 kts 304°
2026-05-01 13:58 63.98245 -29.94545 38198 ft 425 kts 304°
2026-05-01 13:59 64.01430 -30.05865 38197 ft 424 kts 299°
2026-05-01 13:59 64.04380 -30.17497 38197 ft 424 kts 298°
2026-05-01 14:00 64.07289 -30.29238 38214 ft 424 kts 298°
2026-05-01 14:00 64.10165 -30.40922 38200 ft 423 kts 298°
2026-05-01 14:01 64.13049 -30.52671 38195 ft 423 kts 298°
2026-05-01 14:01 64.15906 -30.64362 38186 ft 423 kts 298°
2026-05-01 14:02 64.18775 -30.76157 38192 ft 422 kts 298°
2026-05-01 14:02 64.21624 -30.87936 38192 ft 422 kts 297°
2026-05-01 14:03 64.24464 -30.99740 38189 ft 422 kts 297°
2026-05-01 14:03 64.27287 -31.11536 38192 ft 422 kts 297°
2026-05-01 14:04 64.30107 -31.23385 38192 ft 421 kts 297°
2026-05-01 14:04 64.32443 -31.33251 38189 ft 421 kts 297°
2026-05-01 14:05 64.35718 -31.47157 38189 ft 421 kts 297°
2026-05-01 14:05 64.38495 -31.59020 38192 ft 421 kts 297°
2026-05-01 14:06 64.41266 -31.70918 38189 ft 421 kts 297°
2026-05-01 14:06 64.44041 -31.82901 38189 ft 421 kts 297°
2026-05-01 14:07 64.46788 -31.94835 38181 ft 421 kts 297°
2026-05-01 14:08 64.50757 -32.12189 38189 ft 421 kts 296°
2026-05-01 14:08 64.53490 -32.24218 38180 ft 421 kts 296°
2026-05-01 14:09 64.56211 -32.36267 38188 ft 421 kts 296°
2026-05-01 14:09 64.58931 -32.48268 38168 ft 421 kts 298°
2026-05-01 14:10 64.61725 -32.60304 38185 ft 421 kts 298°
2026-05-01 14:10 64.64448 -32.72294 38181 ft 420 kts 298°
2026-05-01 14:11 64.67121 -32.84340 38183 ft 419 kts 297°
2026-05-01 14:11 64.71120 -33.02608 38176 ft 419 kts 297°
2026-05-01 14:12 64.73736 -33.14634 38175 ft 419 kts 297°
2026-05-01 14:12 64.76326 -33.26747 38172 ft 419 kts 295°
2026-05-01 14:13 64.78468 -33.37035 38190 ft 419 kts 295°
2026-05-01 14:13 64.81072 -33.49413 38188 ft 417 kts 295°
2026-05-01 14:14 64.84086 -33.63617 38162 ft 418 kts 295°
2026-05-01 14:14 64.86637 -33.75658 38180 ft 418 kts 295°
2026-05-01 14:15 64.88822 -33.86030 38162 ft 418 kts 295°
2026-05-01 14:15 64.91395 -33.98322 38174 ft 418 kts 295°
2026-05-01 14:16 64.93961 -34.10650 38174 ft 418 kts 295°
2026-05-01 14:16 64.96495 -34.22901 38174 ft 418 kts 295°
2026-05-01 14:17 64.99033 -34.35245 38170 ft 418 kts 295°
2026-05-01 14:17 65.01186 -34.45771 38191 ft 417 kts 295°
2026-05-01 14:18 65.02766 -34.53530 38154 ft 418 kts 295°
2026-05-01 14:18 65.05146 -34.65272 38170 ft 419 kts 295°
2026-05-01 14:19 65.07403 -34.76469 38167 ft 418 kts 294°
2026-05-01 14:19 65.09251 -34.85683 38107 ft 419 kts 294°
2026-05-01 14:20 65.12722 -35.03100 38174 ft 418 kts 294°
2026-05-01 14:21 65.15185 -35.15551 38164 ft 417 kts 294°
2026-05-01 14:21 65.17608 -35.27890 38161 ft 418 kts 294°
2026-05-01 14:22 65.21258 -35.46621 38165 ft 417 kts 294°
2026-05-01 14:22 65.23691 -35.59160 38159 ft 417 kts 294°
2026-05-01 14:23 65.26132 -35.71741 38159 ft 417 kts 294°
2026-05-01 14:23 65.28552 -35.84337 38175 ft 417 kts 294°
2026-05-01 14:24 65.30948 -35.96929 38159 ft 417 kts 294°
2026-05-01 14:24 65.33341 -36.09595 38159 ft 416 kts 293°
2026-05-01 14:25 65.35708 -36.22170 38154 ft 416 kts 294°
2026-05-01 14:25 65.38014 -36.34475 38153 ft 416 kts 293°
2026-05-01 14:26 65.41337 -36.52392 38153 ft 416 kts 293°
2026-05-01 14:27 65.43661 -36.65087 38143 ft 416 kts 292°
2026-05-01 14:27 65.45837 -36.77127 38140 ft 417 kts 292°
2026-05-01 14:28 65.49113 -36.95250 38129 ft 417 kts 293°
2026-05-01 14:28 65.51389 -37.07820 38307 ft 413 kts 292°
2026-05-01 14:29 65.52476 -37.13864 38151 ft 415 kts 292°
2026-05-01 14:29 65.53345 -37.18718 38088 ft 416 kts 292°
2026-05-01 14:30 65.57652 -37.42953 38133 ft 416 kts 292°
2026-05-01 14:31 65.61024 -37.62210 38154 ft 416 kts 292°
2026-05-01 14:31 65.63245 -37.75109 38172 ft 416 kts 291°
2026-05-01 14:32 65.65477 -37.88083 38158 ft 416 kts 291°
2026-05-01 14:32 65.67696 -38.01026 38175 ft 416 kts 291°
2026-05-01 14:33 65.69801 -38.13369 38175 ft 416 kts 291°
2026-05-01 14:33 65.72007 -38.26390 38183 ft 416 kts 291°
2026-05-01 14:34 65.74190 -38.39364 38170 ft 415 kts 291°
2026-05-01 14:34 65.76360 -38.52350 38169 ft 416 kts 291°
2026-05-01 14:35 65.78525 -38.65398 38207 ft 416 kts 291°
2026-05-01 14:35 65.80685 -38.78496 38208 ft 415 kts 291°
2026-05-01 14:36 65.82828 -38.91589 38255 ft 415 kts 290°
2026-05-01 14:36 65.84958 -39.04692 38255 ft 416 kts 290°
2026-05-01 14:37 65.87079 -39.17824 38249 ft 416 kts 290°
2026-05-01 14:37 65.89178 -39.30919 38300 ft 415 kts 290°
2026-05-01 14:38 65.91274 -39.44082 38293 ft 415 kts 290°
2026-05-01 14:38 65.93360 -39.57274 38296 ft 415 kts 290°
2026-05-01 14:39 65.95428 -39.70448 38323 ft 415 kts 290°
2026-05-01 14:39 65.97491 -39.83683 38301 ft 415 kts 290°
2026-05-01 14:40 65.99537 -39.96896 38301 ft 415 kts 290°
2026-05-01 14:40 66.01462 -40.10222 38303 ft 415 kts 288°
2026-05-01 14:41 66.03271 -40.23672 38288 ft 414 kts 287°
2026-05-01 14:41 66.05065 -40.37172 38281 ft 414 kts 287°
2026-05-01 14:42 66.06848 -40.50582 38254 ft 414 kts 287°
2026-05-01 14:42 66.08635 -40.64066 38242 ft 414 kts 287°
2026-05-01 14:43 66.10416 -40.77598 38252 ft 414 kts 287°
2026-05-01 14:43 66.12163 -40.90983 38251 ft 414 kts 287°
2026-05-01 14:44 66.13865 -41.04128 38251 ft 414 kts 287°
2026-05-01 14:44 66.16462 -41.24387 38212 ft 407 kts 287°
2026-05-01 14:45 66.17308 -41.31040 37597 ft 409 kts 286°
2026-05-01 14:45 66.19026 -41.44649 36034 ft 419 kts 286°
2026-05-01 14:45 66.19900 -41.51617 35281 ft 423 kts 286°
2026-05-01 14:46 66.20771 -41.58582 34570 ft 427 kts 286°
2026-05-01 14:46 66.22511 -41.72583 32947 ft 428 kts 286°
2026-05-01 14:46 66.23381 -41.79635 32193 ft 428 kts 286°
2026-05-01 14:47 66.24246 -41.86672 31899 ft 419 kts 285°
2026-05-01 14:47 66.25087 -41.93537 31641 ft 410 kts 285°
2026-05-01 14:47 66.25902 -42.00223 31401 ft 401 kts 285°
2026-05-01 14:48 66.27467 -42.13149 30951 ft 385 kts 285°
2026-05-01 14:48 66.28236 -42.19538 30698 ft 382 kts 285°
2026-05-01 14:48 66.29741 -42.32145 30209 ft 381 kts 285°
2026-05-01 14:49 66.31226 -42.44669 29631 ft 377 kts 285°
2026-05-01 14:49 66.32697 -42.57161 29062 ft 374 kts 285°
2026-05-01 14:50 66.33656 -42.65369 28693 ft 371 kts 285°
2026-05-01 14:50 66.35521 -42.81428 28478 ft 355 kts 284°
2026-05-01 14:51 66.36197 -42.87302 28606 ft 360 kts 284°
2026-05-01 14:51 66.37589 -42.99481 28844 ft 371 kts 284°
2026-05-01 14:52 66.39009 -43.11985 29040 ft 381 kts 284°
2026-05-01 14:52 66.39733 -43.18401 29132 ft 386 kts 284°
2026-05-01 14:52 66.41194 -43.31415 29552 ft 391 kts 284°
2026-05-01 14:53 66.41929 -43.37999 29817 ft 393 kts 284°
2026-05-01 14:53 66.42654 -43.44525 29997 ft 394 kts 284°
2026-05-01 14:53 66.43392 -43.51202 30161 ft 398 kts 284°
2026-05-01 14:53 66.44122 -43.57840 30371 ft 399 kts 284°
2026-05-01 14:54 66.44861 -43.64581 30588 ft 400 kts 284°
2026-05-01 14:54 66.45583 -43.71205 30802 ft 401 kts 284°
2026-05-01 14:54 66.46320 -43.77989 31009 ft 402 kts 284°
2026-05-01 14:54 66.47046 -43.84712 31215 ft 403 kts 284°
2026-05-01 14:55 66.47781 -43.91541 31411 ft 404 kts 283°
2026-05-01 14:55 66.48501 -43.98271 31650 ft 405 kts 283°
2026-05-01 14:55 66.49949 -44.11886 32154 ft 404 kts 283°
2026-05-01 14:56 66.50666 -44.18672 32260 ft 397 kts 283°
2026-05-01 14:56 66.51367 -44.25331 32265 ft 386 kts 283°
2026-05-01 14:56 66.52040 -44.31755 32263 ft 382 kts 283°
2026-05-01 14:57 66.53372 -44.44594 32258 ft 382 kts 283°
2026-05-01 14:57 66.55362 -44.63981 32252 ft 382 kts 283°
2026-05-01 14:58 66.56678 -44.76945 32254 ft 382 kts 283°
2026-05-01 14:58 66.57977 -44.89848 32254 ft 382 kts 283°
2026-05-01 14:59 66.59266 -45.02776 32255 ft 381 kts 282°
2026-05-01 14:59 66.60541 -45.15681 32217 ft 380 kts 282°
2026-05-01 15:00 66.62432 -45.35056 32238 ft 379 kts 282°
2026-05-01 15:01 66.63677 -45.47962 32237 ft 379 kts 282°
2026-05-01 15:01 66.64908 -45.60836 32235 ft 379 kts 282°
2026-05-01 15:02 66.66131 -45.73759 32233 ft 379 kts 282°
2026-05-01 15:02 66.67342 -45.86678 32230 ft 379 kts 282°
2026-05-01 15:03 66.68549 -45.99677 32227 ft 379 kts 281°
2026-05-01 15:03 66.69737 -46.12599 32237 ft 378 kts 281°
2026-05-01 15:04 66.70919 -46.25585 32218 ft 378 kts 281°
2026-05-01 15:04 66.72084 -46.38523 32236 ft 378 kts 281°
2026-05-01 15:05 66.73237 -46.51450 32230 ft 378 kts 281°
2026-05-01 15:05 66.74384 -46.64443 32231 ft 378 kts 281°
2026-05-01 15:06 66.75329 -46.75237 32216 ft 378 kts 281°
2026-05-01 15:06 66.76454 -46.88229 32196 ft 378 kts 280°
2026-05-01 15:07 66.77555 -47.01030 32520 ft 354 kts 280°
2026-05-01 15:07 66.78064 -47.06982 32980 ft 344 kts 279°
2026-05-01 15:07 66.78564 -47.12884 33145 ft 345 kts 279°
2026-05-01 15:08 66.79571 -47.24921 33315 ft 352 kts 279°
2026-05-01 15:08 66.80591 -47.37226 33474 ft 359 kts 279°
2026-05-01 15:09 66.81621 -47.49736 33609 ft 366 kts 279°
2026-05-01 15:09 66.82657 -47.62448 33778 ft 372 kts 279°
2026-05-01 15:10 66.83710 -47.75492 33931 ft 379 kts 279°
2026-05-01 15:10 66.84761 -47.88670 34066 ft 385 kts 279°
2026-05-01 15:10 66.85288 -47.95332 34174 ft 388 kts 279°
2026-05-01 15:11 66.86882 -48.15721 34452 ft 393 kts 278°
2026-05-01 15:11 66.87406 -48.22502 34587 ft 394 kts 278°
2026-05-01 15:12 66.87936 -48.29401 34712 ft 395 kts 278°
2026-05-01 15:12 66.88981 -48.43137 34982 ft 396 kts 278°
2026-05-01 15:12 66.89498 -48.49990 35091 ft 397 kts 278°
2026-05-01 15:13 66.91046 -48.70794 35477 ft 398 kts 278°
2026-05-01 15:14 66.92061 -48.84640 35703 ft 399 kts 278°
2026-05-01 15:14 66.92565 -48.91586 35851 ft 400 kts 278°
2026-05-01 15:14 66.93570 -49.05580 36067 ft 402 kts 278°
2026-05-01 15:15 66.94564 -49.19607 36279 ft 403 kts 278°
2026-05-01 15:15 66.95548 -49.33670 36468 ft 404 kts 278°
2026-05-01 15:16 66.96531 -49.47899 36677 ft 406 kts 277°
2026-05-01 15:16 66.97495 -49.62059 36883 ft 407 kts 277°
2026-05-01 15:17 66.98451 -49.76303 37101 ft 408 kts 277°
2026-05-01 15:18 66.99868 -49.97827 37390 ft 410 kts 277°
2026-05-01 15:19 67.00899 -50.26876 37757 ft 411 kts 272°
2026-05-01 15:19 67.01276 -50.41457 37950 ft 410 kts 272°
2026-05-01 15:19 67.01471 -50.48688 38119 ft 409 kts 272°
2026-05-01 15:20 67.02067 -50.70470 38156 ft 409 kts 272°
2026-05-01 15:21 67.02455 -50.84994 38156 ft 409 kts 272°
2026-05-01 15:21 67.02828 -50.99522 38178 ft 409 kts 272°
2026-05-01 15:22 67.03362 -51.21320 38167 ft 408 kts 272°
2026-05-01 15:22 67.03699 -51.35747 38174 ft 408 kts 271°
2026-05-01 15:23 67.04024 -51.50285 38182 ft 408 kts 271°
2026-05-01 15:23 67.04336 -51.64848 38186 ft 408 kts 271°
2026-05-01 15:24 67.04635 -51.79357 38188 ft 408 kts 271°
2026-05-01 15:24 67.04919 -51.93793 38195 ft 408 kts 271°
2026-05-01 15:25 67.05192 -52.08321 38203 ft 407 kts 271°
2026-05-01 15:25 67.05451 -52.22836 38204 ft 408 kts 270°
2026-05-01 15:26 67.05696 -52.37344 38211 ft 408 kts 270°
2026-05-01 15:26 67.05929 -52.51951 38210 ft 409 kts 270°
2026-05-01 15:27 67.06149 -52.66453 38207 ft 408 kts 270°
2026-05-01 15:28 67.06454 -52.88284 38211 ft 408 kts 270°
2026-05-01 15:28 67.06639 -53.02784 38218 ft 408 kts 270°
2026-05-01 15:29 67.06894 -53.24596 38254 ft 409 kts 269°
2026-05-01 15:30 67.07187 -53.53843 38229 ft 412 kts 269°
2026-05-01 15:31 67.07605 -53.97885 38231 ft 411 kts 270°
2026-05-01 15:32 67.07773 -54.27155 38223 ft 411 kts 269°
2026-05-01 15:34 67.07913 -54.71319 38195 ft 412 kts 269°